Location: Forst
(46.9333°N, 15.4333°E)
Time: 15:03:22
(UTC+00:00)

Cosmos 2285 Rocket - Pass Details

Date: 01 December 2020
Orbit: 971 x 998 km, 74.0° (Epoch: 28 January)

Event Time Altitude Azimuth Distance (km) Brightness Sun altitude
Rises 15:39:26 0° 339° (NNW) 3,718 7.0 -5.0°
Reaches altitude 10° 15:42:04 10° 344° (NNW) 2,762 6.3 -5.4°
Maximum altitude 15:48:23 58° 63° (ENE) 1,137 4.1 -6.4°
Drops below altitude 10° 15:54:37 10° 142° (SE) 2,727 6.2 -7.4°
Sets 15:57:11 0° 147° (SSE) 3,667 6.9 -7.8°
